Zurück zum Katalog

FENGYUN 1C DEB

AktivPO
NORAD 30926·DEBRIS·🇨🇳 China

Gestartet May 10, 1999 von Taiyuan Satellite Launch Center

Loading…

Nächste Überflüge (nächste 24 Stunden)

TLE

AktuellSource: Space-Track

Epoche: Sep 14, 2026, 09:04 UTC

1 30926U 99025AZQ 26257.37793296  .00001853  00000-0  15067-3 0  9992
2 30926  98.8350 235.3574 0157206 213.6185 145.4981 14.92025571 48742

Verfolge FENGYUN 1C DEB in Echtzeit mit AllMySat

Download on the App Store